EW8543 Weather Reports


Display with metric or nautical units.
time (UTC)temp
F
wind
direction
speed
MPH
gust
MPH
rain 1hr
in
rain 24hr
in
rain mn
in
humidity
%
barometer
mb
20260506001524 50 31 5.0 10.0 0.00 0.00 0.00 80 1010.2
20260506001057 50 5 3.0 10.0 0.00 0.00 0.00 80 1010.3
20260506000526 50 17 4.0 11.0 0.00 0.00 0.00 80 1010.3
20260506000029 50 11 5.0 12.0 0.00 0.00 0.00 80 1010.4
20260505235538 50 339 4.0 13.0 0.00 0.00 0.00 79 1010.4
20260505235042 50 19 4.0 13.0 0.00 0.00 0.00 79 1010.4
20260505234530 49 360 3.0 11.0 0.00 0.00 0.00 79 1010.4
20260505234039 49 331 5.0 11.0 0.00 0.00 0.00 79 1010.5
20260505233529 49 348 3.0 10.0 0.00 0.00 0.00 79 1010.5
20260505233033 49 355 4.0 10.0 0.00 0.00 0.00 79 1010.5
20260505232522 49 345 5.0 12.0 0.00 0.00 0.00 78 1010.6
20260505232031 49 338 4.0 12.0 0.00 0.00 0.00 78 1010.6
20260505231520 49 344 3.0 9.0 0.00 0.00 0.00 78 1010.6
20260505231028 50 340 5.0 11.0 0.00 0.00 0.00 78 1010.7
20260505230533 50 44 3.0 11.0 0.00 0.00 0.00 78 1010.6
20260505230059 50 339 5.0 11.0 0.00 0.00 0.00 78 1010.7
20260505225547 50 5 3.0 14.0 0.00 0.00 0.00 78 1010.7
20260505225034 50 355 5.0 14.0 0.00 0.00 0.00 78 1010.7
20260505224523 50 24 3.0 11.0 0.00 0.00 0.00 77 1010.7
20260505224027 50 360 4.0 11.0 0.00 0.00 0.00 78 1010.7
20260505223535 50 11 4.0 10.0 0.00 0.00 0.00 77 1010.7
20260505223025 50 344 4.0 14.0 0.00 0.00 0.00 77 1010.8
20260505222533 50 339 3.0 14.0 0.00 0.00 0.00 77 1010.8
20260505222023 50 350 4.0 12.0 0.00 0.00 0.00 77 1010.8
20260505221528 50 355 2.0 12.0 0.00 0.00 0.00 77 1010.9
20260505221034 50 5 3.0 10.0 0.00 0.00 0.00 77 1010.9
20260505220524 50 5 3.0 10.0 0.00 0.00 0.00 76 1010.9
20260505220024 50 14 4.0 12.0 0.00 0.00 0.00 76 1011.0
20260505215549 50 5 5.0 12.0 0.00 0.00 0.00 76 1011.0
20260505215033 50 55 4.0 12.0 0.00 0.00 0.00 76 1011.0
20260505214521 50 32 6.0 12.0 0.00 0.00 0.00 76 1011.0
20260505214030 50 59 4.0 10.0 0.00 0.00 0.00 76 1011.1
20260505213539 50 55 3.0 10.0 0.00 0.00 0.00 76 1011.0
20260505213023 51 19 4.0 13.0 0.00 0.00 0.00 76 1011.0
20260505212532 51 9 5.0 13.0 0.00 0.00 0.00 75 1011.1
20260505212039 51 36 5.0 12.0 0.00 0.00 0.00 75 1011.1
20260505211528 51 360 5.0 12.0 0.00 0.00 0.00 75 1011.1
20260505211037 51 32 4.0 9.0 0.00 0.00 0.00 76 1011.1
20260505210522 51 360 3.0 11.0 0.00 0.00 0.00 75 1011.1
20260505210046 51 9 5.0 11.0 0.00 0.00 0.00 75 1011.2
20260505205558 51 25 4.0 10.0 0.00 0.00 0.00 75 1011.2
20260505205046 51 360 4.0 13.0 0.00 0.00 0.00 76 1011.2
20260505204551 51 14 3.0 13.0 0.00 0.00 0.00 76 1011.2
20260505204019 51 40 5.0 14.0 0.00 0.00 0.00 75 1011.2
20260505203528 51 311 6.0 12.0 0.00 0.00 0.00 75 1011.1
20260505203037 52 16 3.0 10.0 0.00 0.00 0.00 75 1011.1
20260505202541 52 355 4.0 10.0 0.00 0.00 0.00 75 1011.1
20260505202028 52 53 3.0 9.0 0.00 0.00 0.00 75 1011.1
20260505201537 52 44 5.0 9.0 0.00 0.00 0.00 76 1011.1
20260505201045 52 5 3.0 13.0 0.00 0.00 0.00 77 1011.0
20260505200549 52 338 4.0 13.0 0.00 0.00 0.00 77 1011.0
20260505200029 52 360 7.0 13.0 0.00 0.00 0.00 77 1011.0
20260505195519 52 325 5.0 11.0 0.00 0.00 0.00 77 1010.9
20260505195028 52 9 4.0 13.0 0.00 0.00 0.00 76 1010.8
20260505194533 53 9 4.0 13.0 0.00 0.00 0.00 77 1010.8
20260505194043 53 5 6.0 13.0 0.00 0.00 0.00 76 1010.8
20260505193531 53 338 4.0 13.0 0.00 0.00 0.00 76 1010.7
20260505193019 53 341 4.0 16.0 0.00 0.00 0.00 76 1010.6
20260505192526 53 348 4.0 16.0 0.00 0.00 0.00 76 1010.6
20260505192028 53 348 4.0 13.0 0.00 0.00 0.00 76 1010.6
20260505191556 53 5 6.0 12.0 0.00 0.00 0.00 76 1010.5
20260505191020 53 5 6.0 12.0 0.00 0.00 0.00 77 1010.5
20260505190548 53 337 5.0 14.0 0.00 0.00 0.00 77 1010.4
20260505190023 53 13 8.0 16.0 0.00 0.00 0.00 77 1010.4
20260505185531 54 27 7.0 16.0 0.00 0.00 0.00 77 1010.3
20260505185037 54 9 6.0 12.0 0.00 0.00 0.00 77 1010.3
20260505184524 54 47 5.0 17.0 0.00 0.00 0.00 76 1010.3
20260505184029 54 351 8.0 17.0 0.00 0.00 0.00 76 1010.2
20260505183536 54 360 6.0 16.0 0.00 0.00 0.00 76 1010.2
20260505183044 54 55 6.0 14.0 0.00 0.00 0.00 76 1010.3
20260505182533 54 311 6.0 14.0 0.00 0.00 0.00 76 1010.1
20260505182038 54 45 8.0 15.0 0.00 0.00 0.00 75 1010.1
20260505181520 54 28 10.0 15.0 0.00 0.00 0.00 75 1010.1
20260505181027 55 5 8.0 19.0 0.00 0.00 0.00 75 1010.2
20260505180534 54 17 8.0 19.0 0.00 0.00 0.00 75 1010.1
20260505180059 55 13 10.0 19.0 0.00 0.00 0.00 74 1010.2
20260505175544 55 61 8.0 17.0 0.00 0.00 0.00 74 1010.2
20260505175047 55 5 9.0 17.0 0.00 0.00 0.00 74 1010.2
20260505174535 55 15 11.0 17.0 0.00 0.00 0.00 73 1010.1
20260505174022 55 360 8.0 17.0 0.00 0.00 0.00 73 1010.2
20260505173526 56 348 7.0 19.0 0.00 0.00 0.00 74 1010.2
20260505173056 55 22 10.0 20.0 0.00 0.00 0.00 74 1010.2
20260505172523 55 347 10.0 20.0 0.00 0.00 0.00 73 1010.2
20260505172028 56 15 10.0 19.0 0.00 0.00 0.00 73 1010.2
20260505171535 56 355 8.0 16.0 0.00 0.00 0.00 73 1010.3
20260505171020 56 13 8.0 19.0 0.00 0.00 0.00 73 1010.3
20260505170549 56 11 6.0 19.0 0.00 0.00 0.00 74 1010.3
20260505170027 56 346 8.0 17.0 0.00 0.00 0.00 74 1010.3
20260505165559 56 355 9.0 17.0 0.00 0.00 0.00 74 1010.4
20260505165019 56 22 11.0 16.0 0.00 0.00 0.00 73 1010.4
20260505164548 56 57 7.0 15.0 0.00 0.00 0.00 73 1010.4
20260505164036 57 355 9.0 18.0 0.00 0.00 0.00 71 1010.4
20260505163525 56 360 9.0 19.0 0.00 0.00 0.00 72 1010.3
20260505163030 57 5 9.0 19.0 0.00 0.00 0.00 72 1010.3
20260505162520 56 9 10.0 19.0 0.00 0.00 0.00 72 1010.3
20260505162029 56 355 10.0 18.0 0.00 0.00 0.00 73 1010.4
20260505161519 55 18 12.0 20.0 0.00 0.00 0.00 73 1010.4
20260505161029 56 338 12.0 20.0 0.00 0.00 0.00 72 1010.4
20260505160557 56 5 9.0 21.0 0.00 0.00 0.00 72 1010.4
20260505153024 56 349 10.0 20.0 0.00 0.00 0.00 73 1010.3
20260505152532 56 337 11.0 20.0 0.00 0.00 0.00 70 1010.4
20260505152020 57 9 9.0 17.0 0.00 0.00 0.00 70 1010.4
20260505151524 58 16 9.0 15.0 0.00 0.00 0.00 70 1010.5
20260505151051 58 347 6.0 15.0 0.00 0.00 0.00 71 1010.5
20260505150518 58 360 8.0 23.0 0.00 0.00 0.00 70 1010.5
20260505140527 58 355 7.0 18.0 0.00 0.00 0.00 69 1010.6
20260505125035 58 348 8.0 19.0 0.00 0.00 0.00 69 1010.9
20260505124524 58 325 8.0 19.0 0.00 0.00 0.00 69 1010.9
20260505124029 58 333 11.0 19.0 0.00 0.00 0.00 67 1010.9
20260505123537 59 340 11.0 18.0 0.00 0.00 0.00 67 1011.0
20260505123042 59 355 9.0 18.0 0.00 0.00 0.00 68 1011.0
20260505122529 59 320 6.0 18.0 0.00 0.00 0.00 68 1010.9
20260505122057 58 34 12.0 18.0 0.00 0.00 0.00 67 1011.0
20260505121525 59 5 8.0 15.0 0.00 0.00 0.00 67 1011.0
20260505121033 59 325 7.0 18.0 0.00 0.00 0.00 68 1010.9
20260505120522 58 40 10.0 18.0 0.00 0.00 0.00 68 1010.9
20260505120041 58 34 8.0 19.0 0.00 0.00 0.00 69 1011.0
20260505115545 58 5 9.0 19.0 0.00 0.00 0.00 70 1011.1
20260505115033 58 5 10.0 16.0 0.00 0.00 0.00 70 1011.0
20260505114543 58 11 8.0 17.0 0.00 0.00 0.00 70 1011.0
20260505114029 58 349 9.0 19.0 0.00 0.00 0.00 70 1011.0
20260505113554 58 32 8.0 16.0 0.00 0.00 0.00 70 1011.2
20260505113021 58 297 10.0 16.0 0.00 0.00 0.00 69 1011.1
20260505112532 59 311 9.0 16.0 0.00 0.00 0.00 69 1011.2
20260505112039 58 36 9.0 17.0 0.00 0.00 0.00 69 1011.3
20260505111524 58 29 10.0 20.0 0.00 0.00 0.00 69 1011.2
20260505111030 59 16 13.0 20.0 0.00 0.00 0.00 66 1011.3
20260505110519 58 321 8.0 17.0 0.00 0.00 0.00 70 1011.4
20260505102024 58 17 9.0 18.0 0.00 0.00 0.00 67 1011.7
20260505101533 58 5 7.0 16.0 0.00 0.00 0.00 69 1011.7
20260505101052 58 26 9.0 16.0 0.00 0.00 0.00 68 1011.8
20260505100520 58 5 7.0 17.0 0.00 0.00 0.00 69 1011.7
20260505100042 58 26 8.0 15.0 0.00 0.00 0.00 70 1011.7
20260505095530 57 305 6.0 15.0 0.00 0.00 0.00 69 1011.8
20260505095019 58 17 6.0 15.0 0.00 0.00 0.00 70 1011.8
20260505094523 57 17 7.0 15.0 0.00 0.00 0.00 70 1011.8
20260505094052 58 21 7.0 15.0 0.00 0.00 0.00 67 1011.8
20260505093520 58 349 7.0 13.0 0.00 0.00 0.00 67 1011.7
20260505093028 58 360 6.0 11.0 0.00 0.00 0.00 67 1011.8
20260505092533 59 346 5.0 12.0 0.00 0.00 0.00 66 1011.8
20260505092021 59 17 5.0 13.0 0.00 0.00 0.00 65 1011.8
20260505091555 59 332 8.0 13.0 0.00 0.00 0.00 65 1011.9
20260505091023 58 25 5.0 14.0 0.00 0.00 0.00 66 1011.8
20260505090532 58 5 6.0 12.0 0.00 0.00 0.00 67 1011.9
20260505090051 58 31 5.0 14.0 0.00 0.00 0.00 68 1011.8
20260505085519 57 39 8.0 14.0 0.00 0.00 0.00 68 1011.8
20260505085029 57 25 6.0 13.0 0.00 0.00 0.00 69 1011.8
20260505084519 57 19 8.0 13.0 0.00 0.00 0.00 68 1011.8
20260505084024 58 347 5.0 10.0 0.00 0.00 0.00 68 1011.9
20260505083532 57 330 4.0 13.0 0.00 0.00 0.00 70 1011.9
20260505083022 55 9 6.0 14.0 0.00 0.00 0.00 71 1011.8
20260505082530 56 343 8.0 14.0 0.00 0.00 0.00 71 1011.9
20260505082019 56 5 5.0 11.0 0.00 0.00 0.00 71 1011.9
20260505081523 55 25 5.0 14.0 0.00 0.00 0.00 72 1011.9
20260505081051 55 37 9.0 15.0 0.00 0.00 0.00 71 1011.8
20260505080520 55 31 6.0 17.0 0.00 0.00 0.00 73 1011.8
20260505080041 55 12 7.0 17.0 0.00 0.00 0.00 73 1011.6
20260505075525 55 5 8.0 17.0 0.00 0.00 0.00 74 1011.8
20260505075032 55 355 6.0 17.0 0.00 0.00 0.00 74 1011.8
20260505074521 55 355 9.0 16.0 0.00 0.00 0.00 73 1011.8
20260505074054 55 28 7.0 13.0 0.00 0.00 0.00 73 1011.8
20260505073521 55 342 4.0 13.0 0.00 0.00 0.00 73 1011.8
20260505073025 55 57 7.0 12.0 0.00 0.00 0.00 73 1012.0
20260505072534 55 29 5.0 9.0 0.00 0.00 0.00 76 1012.0
20260505072023 54 24 4.0 9.0 0.00 0.00 0.00 76 1012.0
20260505071532 54 40 4.0 9.0 0.00 0.00 0.00 77 1012.1
20260505071021 54 21 4.0 9.0 0.00 0.00 0.00 77 1012.1
20260505070545 54 355 3.0 10.0 0.00 0.00 0.00 79 1012.2
20260505070026 53 18 4.0 10.0 0.00 0.00 0.00 80 1012.2
20260505065535 53 360 4.0 10.0 0.00 0.00 0.00 81 1012.3
20260505065023 52 23 3.0 10.0 0.00 0.00 0.00 81 1012.3
20260505064528 52 15 5.0 9.0 0.00 0.00 0.00 82 1012.2
20260505064017 51 42 3.0 10.0 0.00 0.00 0.00 83 1012.3
20260505063526 51 46 5.0 11.0 0.00 0.00 0.00 83 1012.4
20260505063034 51 15 3.0 11.0 0.00 0.00 0.00 83 1012.5
20260505062523 52 15 4.0 10.0 0.00 0.00 0.00 84 1012.5
20260505062026 52 23 4.0 10.0 0.00 0.00 0.00 85 1012.5
20260505061535 51 38 3.0 14.0 0.00 0.00 0.00 85 1012.5
20260505061024 51 37 4.0 14.0 0.00 0.00 0.00 86 1012.4
20260505060533 51 332 4.0 10.0 0.00 0.00 0.00 86 1012.5
20260505060036 51 5 3.0 10.0 0.00 0.00 0.00 86 1012.6
20260505055522 51 42 3.0 6.0 0.00 0.04 0.00 86 1012.5
20260505055032 51 38 2.0 6.0 0.00 0.04 0.00 86 1012.5
20260505054521 51 26 3.0 9.0 0.00 0.04 0.00 87 1012.5
20260505054030 51 33 2.0 9.0 0.00 0.04 0.00 87 1012.5
20260505053539 51 346 4.0 9.0 0.00 0.04 0.00 87 1012.5
20260505053022 51 73 2.0 9.0 0.00 0.04 0.00 87 1012.5
20260505052531 51 36 3.0 9.0 0.00 0.04 0.00 87 1012.5
20260505052039 51 16 3.0 9.0 0.00 0.04 0.00 87 1012.4
20260505051528 51 9 3.0 6.0 0.00 0.04 0.00 87 1012.4
20260505051055 51 24 3.0 8.0 0.00 0.04 0.00 87 1012.3
20260505050523 51 61 2.0 9.0 0.00 0.04 0.00 87 1012.3
20260505041532 51 10 3.0 9.0 0.00 0.04 0.00 88 1012.2
20260505041022 51 21 2.0 9.0 0.00 0.04 0.00 87 1012.1
20260505040531 51 350 3.0 8.0 0.00 0.04 0.00 87 1012.2
20260505040053 51 5 3.0 9.0 0.00 0.04 0.00 87 1012.2
20260505035540 51 5 4.0 9.0 0.00 0.04 0.00 87 1012.2
20260505035029 51 321 4.0 9.0 0.00 0.04 0.00 87 1012.1
20260505034518 51 9 4.0 8.0 0.00 0.04 0.00 87 1012.2
20260505034027 51 57 3.0 6.0 0.00 0.04 0.00 87 1012.2
20260505033532 51 346 3.0 10.0 0.00 0.04 0.00 87 1012.2
20260505033020 51 5 3.0 10.0 0.00 0.04 0.00 87 1012.2
20260505032549 51 5 4.0 9.0 0.00 0.04 0.00 87 1012.2
20260505032017 51 5 4.0 9.0 0.00 0.04 0.00 87 1012.2
20260505031523 51 360 4.0 11.0 0.00 0.04 0.00 87 1012.2
20260505031033 51 348 2.0 11.0 0.00 0.04 0.00 87 1012.2
20260505030542 51 24 4.0 11.0 0.00 0.04 0.00 87 1012.3
20260505030023 51 360 3.0 9.0 0.00 0.04 0.00 87 1012.3
20260505025549 51 329 4.0 10.0 0.00 0.04 0.00 87 1012.4
20260505025034 51 344 3.0 11.0 0.00 0.04 0.00 87 1012.4
20260505024522 51 349 3.0 11.0 0.00 0.04 0.00 87 1012.4
20260505024032 52 53 4.0 12.0 0.00 0.04 0.00 87 1012.4
20260505023520 52 342 4.0 12.0 0.00 0.04 0.00 87 1012.4
20260505023025 52 19 4.0 12.0 0.00 0.04 0.00 87 1012.5
20260505022519 52 36 4.0 12.0 0.00 0.04 0.00 86 1012.3
20260505022025 52 9 3.0 9.0 0.00 0.04 0.00 86 1012.4
20260505021534 52 13 3.0 10.0 0.00 0.04 0.00 86 1012.4
20260505021019 52 355 4.0 10.0 0.00 0.04 0.00 86 1012.4
20260505020524 52 30 4.0 11.0 0.00 0.04 0.00 86 1012.5
20260505020036 52 9 4.0 11.0 0.00 0.04 0.00 86 1012.6
20260505015543 52 350 4.0 9.0 0.00 0.04 0.00 86 1012.7
20260505015023 52 18 3.0 12.0 0.00 0.04 0.00 86 1012.8
20260505014554 52 17 3.0 12.0 0.00 0.04 0.00 86 1012.8
20260505014033 52 5 3.0 9.0 0.00 0.04 0.00 86 1012.7
20260505013522 52 23 3.0 9.0 0.00 0.04 0.00 86 1012.6
20260505013055 52 355 4.0 9.0 0.00 0.04 0.00 86 1012.7
20260505012522 52 74 3.0 9.0 0.00 0.04 0.00 86 1012.7
20260505012017 53 355 3.0 8.0 0.00 0.04 0.00 86 1012.7
20260505011525 53 13 3.0 8.0 0.00 0.04 0.00 86 1012.8
20260505011028 53 17 3.0 8.0 0.00 0.04 0.00 86 1012.7
20260505010537 53 25 2.0 9.0 0.00 0.04 0.00 86 1012.8
20260505010030 53 343 4.0 9.0 0.00 0.04 0.00 87 1012.7
20260505005520 53 26 2.0 9.0 0.00 0.04 0.00 87 1012.8
20260505005027 53 59 4.0 8.0 0.00 0.04 0.00 87 1012.9
20260505004516 53 46 4.0 8.0 0.00 0.04 0.00 87 1012.9
20260505004023 53 346 3.0 14.0 0.00 0.04 0.00 87 1012.9
20260505003528 53 42 6.0 14.0 0.00 0.04 0.00 87 1013.0
20260505003031 53 360 4.0 8.0 0.00 0.04 0.00 87 1013.0
20260505002519 53 339 3.0 8.0 0.00 0.04 0.00 87 1013.0
20260505002042 53 46 2.0 11.0 0.00 0.04 0.00 87 1013.0